Weather History for VTBD - February, 2013

Change the Weather History Date:

Sunday, February 24, 2013

  Actual Average Record
Temperature  
Mean Temperature 86 °F -  
Max Temperature 94 °F 93 °F 98 °F (2001)
Min Temperature 77 °F 76 °F 73 °F (2011)
Cooling Degree Days 20    
Growing Degree Days 36 (Base 50)    
Moisture  
Dew Point 65 °F    
Average Humidity 51    
Maximum Humidity 61    
Minimum Humidity 34    
Precipitation  
Precipitation 0.00 in 0.03 in - ()
Sea Level Pressure  
Sea Level Pressure 29.88 in    
Wind  
Wind Speed 5 mph ()    
Max Wind Speed 12 mph    
Max Gust Speed -    
Visibility 5.9 miles    
Events      
Averages and records for this station are not official NWS values.
T = Trace of Precipitation, MM = Missing Value Source: Averaged Metar Reports

Daily Weather History Graph

Daily Weather History Graph

Search for Another Location

Airport or City:

Trip Planner

Search our weather history database for the weather conditions in past years. The results will help you decide how hot, cold, wet, or windy it might be!

Date:

Astronomy

Feb. 24, 2013 Rise Set
Actual Time 6:36 AM ICT 6:24 PM ICT
Civil Twilight 6:15 AM ICT 6:46 PM ICT
Nautical Twilight 5:50 AM ICT 7:11 PM ICT
Astronomical Twilight 5:25 AM ICT 7:36 PM ICT
Moon 5:08 PM ICT (2/24) 5:07 AM ICT (2/24)
Length of Visible Light 12h 31m
Length of Day
11h 48m
Waxing Gibbous, 97% of the Moon is Illuminated
Feb 24
Waxing Gibbous
Feb 26
Full
Mar 5
Last Quarter
Mar 12
New
Mar 20
First Quarter

Hourly Weather History & Observations

Time (ICT) Temp. Heat Index Dew Point Humidity Pressure Visibility Wind Dir Wind Speed Gust Speed Precip Events Conditions
12:00 AM 84.2 °F 87.3 °F 68.0 °F 58% 29.92 in 5.0 mi NNW 4.6 mph - N/A   Mostly Cloudy
12:30 AM 84.2 °F 86.6 °F 66.2 °F 55% 29.92 in 5.0 mi North 6.9 mph - N/A   Mostly Cloudy
1:00 AM 83 °F - 67 °F 49% 29.91 in 5 mi NE 6.9 mph - -   Haze
1:00 AM 82.4 °F 84.6 °F 66.2 °F 58% 29.89 in 5.0 mi NE 6.9 mph - N/A   Mostly Cloudy
1:30 AM 82.4 °F 83.9 °F 64.4 °F 54% 29.89 in 5.6 mi North 5.8 mph - N/A   Mostly Cloudy
2:00 AM 82.4 °F 83.9 °F 64.4 °F 54% 29.86 in 5.6 mi NE 3.5 mph - N/A   Mostly Cloudy
2:30 AM 82.4 °F 83.9 °F 64.4 °F 54% 29.86 in 5.6 mi NE 4.6 mph - N/A   Mostly Cloudy
3:00 AM 82.4 °F 83.4 °F 62.6 °F 51% 29.86 in 5.6 mi NNE 3.5 mph - N/A   Mostly Cloudy
3:30 AM 80.6 °F 81.8 °F 62.6 °F 54% 29.86 in 5.6 mi NE 5.8 mph - N/A   Mostly Cloudy
4:00 AM 80.6 °F 81.8 °F 62.6 °F 54% 29.86 in 5.6 mi North 5.8 mph - N/A   Mostly Cloudy
4:30 AM 80.6 °F 82.3 °F 64.4 °F 58% 29.86 in 5.6 mi North 6.9 mph - N/A   Mostly Cloudy
5:00 AM 78.8 °F - 62.6 °F 57% 29.86 in 6.2 mi NE 9.2 mph - N/A   Mostly Cloudy
5:30 AM 78.8 °F - 62.6 °F 57% 29.86 in 6.2 mi NE 10.4 mph - N/A   Mostly Cloudy
6:00 AM 77.0 °F - 62.6 °F 61% 29.86 in 6.2 mi North 11.5 mph - N/A   Mostly Cloudy
6:30 AM 77.0 °F - 62.6 °F 61% 29.89 in 6.2 mi North 5.8 mph - N/A   Mostly Cloudy
7:00 AM 77 °F - 63 °F 52% 29.91 in 6 mi NE 4.6 mph - -   Scattered Clouds
7:00 AM 77.0 °F - 62.6 °F 61% 29.89 in 6.2 mi NE 4.6 mph - N/A   Mostly Cloudy
7:30 AM 77.0 °F - 62.6 °F 61% 29.92 in 6.2 mi North 4.6 mph - N/A   Mostly Cloudy
8:00 AM 77.0 °F - 62.6 °F 61% 29.92 in 6.2 mi NE 5.8 mph - N/A   Mostly Cloudy
8:30 AM 77.0 °F - 62.6 °F 61% 29.92 in 6.2 mi North 3.5 mph - N/A   Mostly Cloudy
9:00 AM 78.8 °F - 62.6 °F 57% 29.92 in 6.2 mi North 5.8 mph - N/A   Mostly Cloudy
9:30 AM 80.6 °F 81.8 °F 62.6 °F 54% 29.95 in 6.2 mi North 4.6 mph - N/A   Mostly Cloudy
10:00 AM 82.4 °F 83.9 °F 64.4 °F 54% 29.95 in 6.2 mi ENE 5.8 mph - N/A   Mostly Cloudy
10:30 AM 82.4 °F 83.9 °F 64.4 °F 54% 29.95 in 6.2 mi ENE 5.8 mph - N/A   Mostly Cloudy
11:00 AM 84.2 °F 86.6 °F 66.2 °F 55% 29.95 in - ENE 5.8 mph - N/A   Clear
11:30 AM 84.2 °F 86.6 °F 66.2 °F 55% 29.95 in - NNE 4.6 mph - N/A   Clear
12:00 PM 86.0 °F 88.2 °F 66.2 °F 51% 29.92 in - North 4.6 mph - N/A   Clear
12:30 PM 86.0 °F 88.2 °F 66.2 °F 51% 29.92 in - North 4.6 mph - N/A   Clear
1:00 PM 89 °F - 64 °F 34% 29.91 in 6 mi North 5.8 mph - -   Mostly Cloudy
1:00 PM 87.8 °F 89.4 °F 64.4 °F 46% 29.89 in - North 5.8 mph - N/A   Clear
1:30 PM 89.6 °F 91.1 °F 64.4 °F 43% 29.86 in - NNE 6.9 mph - N/A   Clear
2:00 PM 89.6 °F 91.1 °F 64.4 °F 43% 29.86 in - North 6.9 mph - N/A   Clear
2:30 PM 89.6 °F 91.1 °F 64.4 °F 43% 29.83 in - North 10.4 mph - N/A   Clear
3:00 PM 91.4 °F 95.4 °F 68.0 °F 46% 29.83 in - North 5.8 mph - N/A   Clear
3:30 PM 93.2 °F 97.7 °F 68.0 °F 44% 29.80 in - ENE 5.8 mph - N/A   Clear
4:00 PM 93.2 °F 94.9 °F 64.4 °F 38% 29.80 in - ENE 4.6 mph - N/A   Clear
4:30 PM 93.2 °F 94.9 °F 64.4 °F 38% 29.80 in - East 3.5 mph - N/A   Clear
5:00 PM 91.4 °F 93.2 °F 64.4 °F 41% 29.80 in - North 3.5 mph - N/A   Clear
5:30 PM 91.4 °F 93.2 °F 64.4 °F 41% 29.80 in - North 3.5 mph - N/A   Clear
6:00 PM 91.4 °F 93.2 °F 64.4 °F 41% 29.80 in - ENE 3.5 mph - N/A   Clear
6:30 PM 91.4 °F 94.0 °F 66.2 °F 43% 29.80 in - ENE 3.5 mph - N/A   Clear
7:00 PM 90 °F - 66 °F 35% 29.83 in 6 mi ENE 3.5 mph - -   Mostly Cloudy
7:00 PM 91.4 °F 94.0 °F 66.2 °F 43% 29.83 in 6.2 mi ENE 3.5 mph - N/A   Mostly Cloudy
7:30 PM 89.6 °F 92.2 °F 66.2 °F 46% 29.86 in 6.2 mi ESE 2.3 mph - N/A   Mostly Cloudy
8:00 PM 89.6 °F 92.2 °F 66.2 °F 46% 29.86 in 6.2 mi Calm Calm - N/A   Mostly Cloudy
8:30 PM 89.6 °F 92.2 °F 66.2 °F 46% 29.86 in 6.2 mi West 4.6 mph - N/A   Mostly Cloudy
9:00 PM 87.8 °F 91.4 °F 68.0 °F 52% 29.89 in 6.2 mi Calm Calm - N/A   Mostly Cloudy
9:30 PM 87.8 °F 91.4 °F 68.0 °F 52% 29.89 in 6.2 mi WNW 3.5 mph - N/A   Mostly Cloudy
10:00 PM 87.8 °F 91.4 °F 68.0 °F 52% 29.89 in 5.6 mi NNW 4.6 mph - N/A   Mostly Cloudy
10:30 PM 86.0 °F 89.4 °F 68.0 °F 55% 29.92 in 5.6 mi NW 3.5 mph - N/A   Mostly Cloudy
11:00 PM 86.0 °F 89.4 °F 68.0 °F 55% 29.92 in 5.6 mi WNW 5.8 mph - N/A   Mostly Cloudy
11:30 PM 86.0 °F 89.4 °F 68.0 °F 55% 29.89 in 5.6 mi NNW 3.5 mph - N/A   Mostly Cloudy